Location: Unspecified
(50.7693°N, 0.0000°E)
Time: 07:42:52
(UTC+00:00)

Transit 2A - Pass Details

Date: 18 August 2020
Orbit: 591 x 967 km, 66.7° (Epoch: 20 September)

Event Time Altitude Azimuth Distance (km) Brightness Sun altitude
Rises 21:23:40 0° 281° (W) 3,575 10.3 -17.6°
Reaches altitude 10° 21:26:51 10° 296° (WNW) 2,672 9.8 -17.9°
Maximum altitude 21:31:33 21° 345° (NNW) 2,010 8.9 -18.4°
Drops below altitude 10° 21:36:19 10° 33° (NNE) 2,716 9.1 -18.9°
Sets 21:39:35 0° 49° (NE) 3,650 9.6 -19.2°
